NOAA 16 DEB

Satellite information

Favourite Embed

Satellite Type and Status

DEBRISIN ORBIT

Key statistics

Satellite NOAA 16 DEB at a glance.

Uptime

9055

Days in orbit

Revolutions

≈ 14.2

Per day

Orbit

SSO

Sun Synchronous Orbit

Inclination

98.7

Latest

Satellite identification and parameters

Extended collection of information and parameters for NOAA 16 DEB.

Object identification

Identified? True

Debris? True

Object name: NOAA 16 DEB

International designator: 2000-055HE

Object number (NORAD): 41302

Object ID (CCSDS): 41302

Country: UNITED STATES OF AMERICA (US)

Current information (Y/N): Y

RCS size: SMALL

Orbital parameters

Period: 101.232 minutes

Inclination: 98.7322 deg

SMA: 7195.128 km

Apoapsis: 833.954 km

Periapsis: 800.033 km

RAAN: 245.3035 deg

Eccentricy: 0.0023572

Argument of periapsis: 132.6977 deg

Mean anomaly: 227.619 deg

Mean motion: 14.22476032 rev/day

Mean motion (dot): 0.00003091 rev/day2

B* drag term: 0.0014015 1/REarth

Two-line elements (TLE)

Creation date: July 5, 2025, 4:36 a.m.

Reference frame: TEME

Reference center: EARTH

Epoch: July 4, 2025, 2:46 p.m. UTC

TLE line 0: 0 NOAA 16 DEB

TLE line 1: 1 41302U 00055HE 25185.61580666 .00003091 00000-0 14015-2 0 9995

TLE line 2: 2 41302 98.7322 245.3035 0023572 132.6977 227.6190 14.22476032489547

Live tracking on map

Real-time ground track for satellite NOAA 16 DEB.

In-orbit conjunctions

A list of the most updated potential collisions computed for object NOAA 16 DEB.

Target Orbit TCA Probability of collision Miss distance Type
COSMOS 1697 LEO 2025-01-30 02:13:30 0.0001779575 67.0 (m) PAYLOAD
COSMOS 1275 DEB LEO 2024-11-11 05:35:11 0.0001964444 314.0 (m) DEBRIS

Associated space launch

The NOAA K, L and M POES satellites begin the fifth generation of improved environmental monitoring in support of NOAA missions. The instrument payload has significant improvements and additions/deletions. The instrument changes have effected the spacecraft subsystems and data formats.

NOAA 16 DEB was lifted into orbit during the mission ‘Titan II SLV | NOAA 16’, on board a Titan II SLV space rocket.

The launch took place on Sept. 21, 2000, 10:22 a.m. from Space Launch Complex 4W.

For more information about the launch, click the button.

Launch to space Titan II SLV | NOAA 16
Titan II SLV | NOAA 16

Agency: N/A

Status: Launch Successful

Launch date: Sept. 21, 2000, 10:22 a.m. UTC

Rocket: Titan II SLV

Launch pad: Space Launch Complex 4W

Location: Vandenberg SFB, CA, USA

...

Latest news about this satellite

There are no fresh news available about this satellite. Check back as we update our databases every day.


Newsletter sign-up

Weekly statistics, charts and insights to help you stay on top of the space industry.